NOAA 16 DEB, 41667

Orbit data source: Space-Track

NOAA 16 DEB, 41667 is space debris in SSO originally from a launch on Thu, 21 Sep 2000 UTC launched from the Air Force Western Test Range (AFWTR). Debris objects in space refer to the collection of defunct objects orbiting the Earth. Examples of debris include non-operational satellites, rocket bodies, and fragments generated from explosions, collisions, or faulty payload assembly.

Loading next visibility...
Identifier
41667, 2000-055PG
Orbit
SSO
Country
Flag of USUS
Related business
Manufacturer
Unknown
Mission
Spacecraft
Bus & Motor
Unknown
Mass
Unknown
Launch date (UTC)
2000-09-21 (25 years ago)
Launch vehicle
Unknown
Launch site
Air Force Western Test Range (AFWTR)
Object type
Payload
Rocket body
Debris
Shape & HBR
Unknown
Radar Cross Section
Small (<0.1 m²)

Expand to show TLE details & history
Last TLE update: 4 days ago

TLE from 4 days ago
0 NOAA 16 DEB
1 41667U 00055PG  25256.54410684  .00001072  00000-0  47767-3 0  9990
2 41667  98.7692 356.9515 0029031 255.6204 104.1752 14.24703080488717
Epoch: 2025-09-13T13:03Z
TLE epoch observation values (Epoch: 2025-09-13T13:03:30.83Z)
Latitude
-0.00004°
Longitude
168.2971°
Altitude
817.578 km
Speed
7.442 km/s
True Right ascension
23h 47m 48s
True Declination
0° 00' 00"
Sunlit
Object was in full shadow at epoch
Visualization orbit readout
Latitude
Unknown
Longitude
Unknown
Altitude
Unknown
Speed
Unknown
Apparent Right ascension
Unknown
Apparent Declination
Unknown
Sunlit
N/A
Visualization observer readout
Local Sidereal Time
00:03:01
Azimuth
Unknown
Elevation
Unknown
Doppler factor
Unknown
Orbital elements
Apogee altitude
827.504 km
Perigee altitude
785.788 km
Semi-major axis
7,184.783 km
Eccentricity
0.0029
Inclination
98.7692°
RAAN
356.9515°
Arg. of periapsis
255.6204°
True anomaly
104.49745°
Mean anomaly
104.1752°
Eccentric anomaly
104.33636°
Mean motion
3.56388 °/min
Orbital period
101.01 mins
BSTAR
0.00047767
Loading maneuver chart data...
Computing Atmospheric mass density...
Loading historical data...
Loading historical data...
Loading historical data...
Loading historical data...
Loading historical data...
Loading historical data...
Loading historical data...

Documentation

Showing up to 5 results
|